SB KEPS @ AMSAT $ORB25347.1 2Line Orbital Elements 25347.AMSAT QST de W1STR AMSAT Orbital Elements for Amateur Satellites in TLE Format From Orbital Analysis Office New England Sci-Tech STEM Education Center Natick MA December 13, 2025 To all radio amateurs These element sets describe the orbits of various satellites in use by the amateur radio community. For details see: www.amsat.org/keplerian-elements-formats/ A daily update of element sets is available at: www.amsat.org/tle/daily-bulletin.txt or without bulletin text: www.amsat.org/tle/dailytle.txt AO-07 1 07530U 74089B 25346.97352808 -.00000026 00000-0 12737-3 0 9997 2 07530 101.9967 353.2437 0012373 126.2103 290.5947 12.53694166337189 UO-11 1 14781U 84021B 25346.86053170 .00002939 00000-0 30918-3 0 9993 2 14781 97.7811 309.8871 0009320 81.9065 278.3210 14.90143516229375 AO-27 1 22825U 93061C 25346.71892467 .00000219 00000-0 10067-3 0 9991 2 22825 98.7147 48.9861 0007345 289.8294 70.2097 14.30876799680333 FO-29 1 24278U 96046B 25346.92086481 -.00000018 00000-0 19147-4 0 9992 2 24278 98.5462 216.0321 0349166 219.5046 138.0164 13.53262901447976 GO-32 1 25397U 98043D 25346.91750823 .00000164 00000-0 91120-4 0 9993 2 25397 98.9920 330.1336 0002046 56.9971 303.1404 14.24377113424810 ISS 1 25544U 98067A 25346.86355306 .00014033 00000-0 25741-3 0 9999 2 25544 51.6304 141.8664 0003245 240.6311 119.4354 15.49550036542873 NO-44 1 26931U 01043C 25346.52665036 .00000321 00000-0 15087-3 0 9992 2 26931 67.0515 7.0299 0007429 270.0603 89.9648 14.31854692263721 SO-50 1 27607U 02058C 25347.00785934 .00003216 00000-0 40082-3 0 9993 2 27607 64.5547 344.7703 0072237 296.5461 62.8252 14.82392574236851 CO-55 1 27844U 03031E 25347.01153825 .00000577 00000-0 26952-3 0 9994 2 27844 98.6765 352.9111 0009775 12.6791 347.4632 14.24179528165176 CO-57 1 27848U 03031J 25346.97818520 .00000480 00000-0 23011-3 0 9998 2 27848 98.6792 352.7398 0009979 30.1158 330.0593 14.23487467164887 RS-22 1 27939U 03042A 25347.05972263 .00002025 00000-0 32349-3 0 9997 2 27939 98.3366 161.2680 0012078 134.9302 339.1380 14.72972512188140 CO-58 1 28895U 05043F 25346.91750934 .00003111 00000-0 50413-3 0 9994 2 28895 98.2721 133.9982 0015361 77.6955 282.5970 14.71901702 74346 CO-65 1 32785U 08021C 25346.97072370 .00008338 00000-0 55984-3 0 9997 2 32785 97.8081 320.0626 0007883 309.9926 50.0608 15.07048905957125 CO-66 1 32791U 08021J 25346.90355358 .00024851 00000-0 98874-3 0 9990 2 32791 97.7445 332.0548 0001300 206.8395 153.2775 15.25261469958825 RS-30 1 32953U 08025A 25346.95201883 .00000015 00000-0 38254-4 0 9995 2 32953 82.5019 111.2910 0019005 0.6514 359.4588 12.43171900796557 SRMSAT 1 37841U 11058D 25347.03845596 .00000506 00000-0 13117-3 0 9996 2 37841 19.9710 106.1426 0011768 316.7615 198.8861 14.11511594731480 ZACUBE-1 1 39417U 13066B 25346.85863495 .00007005 00000-0 57114-3 0 9991 2 39417 97.8066 303.4041 0041920 146.5952 213.7929 14.99088052652793 Delfi-N3xt 1 39428U 13066N 25346.74131540 .00010758 00000-0 10053-2 0 9999 2 39428 97.8341 262.6418 0080981 105.3395 255.6791 14.91824220646791 GOMX-1 1 39430U 13066Q 25347.03796594 .00004411 00000-0 67583-3 0 9991 2 39430 97.6590 194.1447 0129750 315.6300 43.4566 14.68589249642588 LO-74 1 39440U 13066AA 25346.80623535 .00008328 00000-0 80135-3 0 9999 2 39440 97.8705 290.4776 0057908 285.6375 73.8458 14.91973898649180 AO-73 1 39444U 13066AE 25346.85435673 .00013132 00000-0 88895-3 0 9992 2 39444 97.8061 310.1338 0040423 115.4885 245.0531 15.05959072651589 DTUSAT-2 1 40030U 14033W 25346.93445086 .00011368 00000-0 66988-3 0 9996 2 40030 98.0758 328.4118 0009425 139.1100 221.0838 15.11739624624519 EO-80 1 40032U 14033Y 25346.94509866 .00012402 00000-0 72852-3 0 9993 2 40032 98.0643 327.8163 0009978 88.7587 271.4784 15.11822967624497 LILACSAT-2 1 40908U 15049K 25347.06010366 .00021916 00000-0 46988-3 0 9990 2 40908 97.4918 12.4520 0007215 195.6808 164.4217 15.44735409566955 IO-86 1 40931U 15052B 25151.18580175 .00001241 00000-0 78118-4 0 9996 2 40931 6.0006 24.0987 0012733 338.8432 21.1169 14.78805930523159 Horyu-4 1 41340U 16012D 25347.00515990 .00062303 00000-0 10401-2 0 9994 2 41340 30.9951 308.1594 0006972 236.2016 123.7970 15.50612811541598 Lapan A3 1 41603U 16040E 25347.02148212 .00006213 00000-0 20608-3 0 9997 2 41603 97.1433 344.5675 0009597 332.9582 27.1159 15.31554848526304 CAS-2T 1 41847U 16066G 25346.96948436 .00001667 00000-0 24471-3 0 9993 2 41847 98.4036 59.7074 0343232 334.4627 23.9944 14.44131599477914 TechnoSat 1 42829U 17042E 25346.99468847 .00006362 00000-0 47010-3 0 9996 2 42829 97.4046 147.1891 0018436 12.7047 347.4640 15.03417538458711 AO-91 1 43017U 17073E 25346.57843392 .00015805 00000-0 74624-3 0 9999 2 43017 97.4954 212.7781 0159607 251.0499 107.3374 15.08858552437210 S-Net D 1 43186U 18014G 25346.68794703 .00009617 00000-0 52758-3 0 9993 2 43186 97.5481 247.7764 0007392 313.4323 46.6292 15.14351282430519 S-Net B 1 43187U 18014H 25346.96031264 .00009302 00000-0 51064-3 0 9991 2 43187 97.5487 248.0268 0007898 306.3610 53.6892 15.14331708430559 S-Net A 1 43188U 18014J 25346.95196063 .00009878 00000-0 54152-3 0 9999 2 43188 97.5497 248.1952 0007858 307.5342 52.5175 15.14362907430550 S-Net C 1 43189U 18014K 25346.69896611 .00009255 00000-0 50814-3 0 9997 2 43189 97.5510 247.9894 0009057 298.9510 61.0813 15.14322328429063 Ten-Koh 1 43677U 18084G 25346.97814902 .00004854 00000-0 37680-3 0 9996 2 43677 98.0746 166.6076 0009358 23.4829 336.6819 15.01820749388202 PO-101 1 43678U 18084H 25346.98573627 .00003772 00000-0 31286-3 0 9998 2 43678 98.1027 170.4580 0007587 45.2867 314.8972 14.99437698388307 QO-100 1 43700U 18090A 25346.99484705 .00000157 00000-0 00000-0 0 9991 2 43700 0.0023 5.9989 0000984 264.0130 195.8988 1.00268794 25819 MinXSS-2 1 43758U 18099A 25346.75527182 .00035022 00000-0 10449-2 0 9993 2 43758 97.4798 54.1195 0009021 212.3135 147.7557 15.34518136385422 AO-95 1 43770U 18099N 25346.13541327 .00017141 00000-0 75519-3 0 9998 2 43770 97.4673 42.4217 0008257 288.7031 71.3308 15.21856532384724 SNUSat 2 1 43782U 18099AA 25346.59286115 .00012913 00000-0 63212-3 0 9991 2 43782 97.4358 38.0016 0009980 222.6897 137.3562 15.18269457384686 SnugLite 1 43784U 18099AC 25346.64859257 .00017412 00000-0 75844-3 0 9995 2 43784 97.4169 38.1029 0002279 200.7469 159.3675 15.22269385384896 ITASat 1 1 43786U 18099AE 25346.89595431 .00011992 00000-0 62490-3 0 9995 2 43786 97.4329 37.2038 0012007 283.1786 76.8107 15.16073982384659 EAGLET 1 1 43790U 18099AJ 25346.37374405 .00007939 00000-0 47706-3 0 9998 2 43790 97.4524 35.9203 0010072 271.2899 88.7178 15.11106117384105 ESEO 1 43792U 18099AL 25347.01448686 .00003213 00000-0 23980-3 0 9994 2 43792 97.4222 27.1875 0011114 247.0415 112.9639 15.03476937383824 JO-97 1 43803U 18099AX 25346.68455544 .00021988 00000-0 83456-3 0 9993 2 43803 97.4424 44.5006 0005886 201.1379 158.9617 15.26839692385104 Suomi 100 1 43804U 18099AY 25346.65558317 .00019105 00000-0 80577-3 0 9992 2 43804 97.4490 43.1164 0010254 212.7143 147.3459 15.23302590384979 ISAT 1 43879U 18111D 25346.73693407 .00051029 00000-0 11997-2 0 9998 2 43879 97.5899 266.4347 0003462 251.4417 108.6454 15.41823779382245 UWE-4 1 43880U 18111E 25347.02465135 .00034841 00000-0 10431-2 0 9993 2 43880 97.5857 263.5568 0007286 276.5205 83.5208 15.34424788382129 Sparrow 1 43881U 18111F 25346.78634292 .00054880 00000-0 11948-2 0 9997 2 43881 97.6087 270.2409 0002889 331.5627 28.5462 15.44105362382372 Prox-1 1 44339U 19036A 25346.90945551 .00017402 00000-0 19499-2 0 9998 2 44339 23.9956 273.6480 0006419 44.5849 315.5165 14.85188710345699 Taurus 1 1 44530U 19059C 25346.97560159 .00013285 00000-0 22619-2 0 9993 2 44530 98.6226 135.8410 0009067 173.5883 186.5438 14.69161033331275 Duchifat 3 1 44854U 19089C 25342.89580904 .10801921 36355-5 10723-2 0 9995 2 44854 36.9163 249.0625 0006835 253.5286 106.4749 16.36980482331539 TO-108 1 44881U 19093C 25347.03717546 .00002448 00000-0 28512-3 0 9990 2 44881 97.7755 58.6615 0013287 345.6497 14.4339 14.86107187323765 FloripaSat 1 1 44885U 19093G 25347.04376084 .00007374 00000-0 57746-3 0 9997 2 44885 97.8040 75.2375 0010392 336.6462 23.4288 15.01270790324696 RS-44 1 44909U 19096E 25346.77953100 .00000029 00000-0 75473-4 0 9994 2 44909 82.5209 103.5821 0217045 220.0019 138.4922 12.79746025278501 SALSAT 1 46495U 20068K 25346.92502343 .00012633 00000-0 48868-3 0 9994 2 46495 97.8788 334.2073 0008929 228.5095 131.5376 15.26328110286919 CSS (TIANHE-1) 1 48274U 21035A 25346.97088639 .00026417 00000-0 33033-3 0 9991 2 48274 41.4684 15.3046 0008245 32.5257 327.6088 15.59178060264217 TUBIN 1 48900U 21059X 25347.02348662 .01817237 25977-5 85469-3 0 9999 2 48900 97.6635 175.5872 0004689 270.4086 89.6666 16.21598663249371 CUTE 1 49263U 21088D 25346.64656061 .00037316 00000-0 48716-3 0 9996 2 49263 97.4342 69.4911 0004323 271.1780 88.8981 15.58584344233280 TeikyoSat 4 1 49396U 21102B 25346.66843620 .00002972 00000-0 19348-3 0 9990 2 49396 97.3903 18.2706 0011351 208.2429 151.8186 15.08641699224597 Z-Sat 1 49399U 21102E 25347.04112260 .00008977 00000-0 46298-3 0 9990 2 49399 97.3585 22.9750 0017406 171.3624 188.7913 15.16443102225216 KOSEN 1 1 49402U 21102H 25346.83454908 .00011743 00000-0 49134-3 0 9996 2 49402 97.3478 27.7223 0015672 140.6158 219.6222 15.23615219225613 HO-113 1 50466U 21131B 25346.99727677 .00001122 00000-0 36209-3 0 9992 2 50466 98.5049 75.4168 0003152 306.1958 53.8939 14.41113377208292 SNUGLITE 2 1 52899U 22065F 25346.93891999 .00002246 00000-0 43927-3 0 9997 2 52899 98.1922 127.4704 0006488 244.6858 115.3673 14.63837896183748 UmKA 1 (RS40S) 1 57172U 23091G 25346.93994783 .00009853 00000-0 48395-3 0 9996 2 57172 97.5345 41.4032 0014734 52.8197 307.4380 15.18175151135720 CubeBel-2 (EU11S) 1 57175U 23091K 25346.98374131 .00021013 00000-0 86620-3 0 9998 2 57175 97.5343 43.9364 0012043 55.3616 304.8755 15.24037699135897 RS-38S 1 57189U 23091Z 25347.03316260 .00023333 00000-0 81923-3 0 9997 2 57189 97.5368 48.4393 0008754 22.2594 337.9024 15.29375201136170 SONATE-2 1 59112U 24043Q 25346.91203974 .00035657 00000-0 75266-3 0 9991 2 59112 97.5322 123.1691 0009032 160.8415 199.3175 15.45080737 99003 MO-122 1 60209U 24125G 25346.59433741 .00042467 00000-0 85893-3 0 9996 2 60209 97.2529 196.9658 0014108 178.4347 181.6949 15.46230497 80585 GRBBeta 1 60237U 24128C 25346.88430271 .00007979 00000-0 55797-3 0 9996 2 60237 61.9892 149.0500 0056314 96.6293 264.1214 15.04757495 78213 Curium One 1 60242U 24128H 25346.92825311 .00014627 00000-0 90154-3 0 9994 2 60242 61.9786 143.7696 0056011 93.5386 267.2116 15.08898163 78319 ROBUSTA-3A 1 60243U 24128J 25346.93166704 .00011022 00000-0 69595-3 0 9991 2 60243 61.9859 145.2908 0056146 91.0076 269.7451 15.08219542 78296 CatSat 1 60246U 24125J 25346.54490439 .00048604 00000-0 11698-2 0 9999 2 60246 97.2317 193.9309 0034064 145.0612 215.2880 15.40517744 78491 HYPERVIEW-1G (RS66S) 1 61772U 24199AP 25347.00138238 .00058150 00000-0 11117-2 0 9996 2 61772 97.3214 216.4395 0007942 235.7704 124.2795 15.47869418105651 AO-123 1 61781U 24199AY 25346.99923429 .00015424 00000-0 50071-3 0 9997 2 61781 97.3252 212.4463 0012824 254.5756 105.4069 15.31957487105388 ZIMSAT 2 1 61783U 24199BA 25346.92201887 .00277053 00000-0 19391-2 0 9996 2 61783 97.3085 219.8929 0003638 187.1954 172.9259 15.73430787109037 HADES-R (SO-124) 1 62690U 25009CK 25346.95947826 .00210230 00000-0 26318-2 0 9999 2 62690 97.3866 69.5870 0001055 255.4285 104.6854 15.59076868 50818 HYDRA-T 1 62692U 25009CM 25346.48891520 .00239714 00000-0 28108-2 0 9995 2 62692 97.3880 69.3013 0001273 268.3844 91.7267 15.60708199 50757 JINJUSat 1B 1 63210U 25052A 25346.65442573 .00023892 00000-0 91052-3 0 9996 2 63210 97.4201 238.8104 0005454 46.7140 313.4553 15.26690690 41578 NUSHSAT 1 1 63211U 25052B 25346.64981927 .00027373 00000-0 10096-2 0 9993 2 63211 97.4184 238.9271 0005601 50.0645 310.1085 15.27742538 41582 TEVEL2-4 1 63213U 25052D 25346.65063454 .00025913 00000-0 97577-3 0 9990 2 63213 97.4104 238.4800 0005121 63.2161 296.9601 15.27072197 41576 TEVEL2-5 1 63214U 25052E 25346.65608999 .00025799 00000-0 97373-3 0 9996 2 63214 97.4101 238.4730 0005047 63.7236 296.4521 15.26996541 41574 TEVEL2-6 1 63215U 25052F 25346.59786093 .00025626 00000-0 96875-3 0 9997 2 63215 97.4105 238.4037 0005161 63.7141 296.4627 15.26944964 41569 TEVEL2-1 1 63217U 25052H 25346.96823685 .00024642 00000-0 94039-3 0 9996 2 63217 97.4082 238.5821 0005413 71.9289 288.2539 15.26637689 41611 TEVEL2-3 1 63218U 25052J 25346.63971075 .00024844 00000-0 94789-3 0 9994 2 63218 97.4085 238.2620 0005407 72.7687 287.4143 15.26643314 41561 TEVEL2-2 1 63219U 25052K 25346.70682324 .00024613 00000-0 93964-3 0 9997 2 63219 97.4081 238.3233 0005429 71.7549 288.4280 15.26625881 41572 TEVEL2-9 1 63237U 25052AD 25346.66983308 .00023130 00000-0 92331-3 0 9998 2 63237 97.4136 237.9932 0009206 82.0820 278.1463 15.25123850 41531 TEVEL2-7 1 63238U 25052AE 25346.68373659 .00022795 00000-0 91404-3 0 9999 2 63238 97.4144 237.9812 0009477 82.1321 278.0992 15.24974582 41536 TEVEL2-8 1 63239U 25052AF 25346.95184457 .00022616 00000-0 90727-3 0 9995 2 63239 97.4139 238.2312 0009439 81.8396 278.3912 15.24960961 41571 HYDRA-W 1 63490U 25052BL 25346.70196035 .00089802 00000-0 21255-2 0 9991 2 63490 97.4064 240.4813 0011611 72.3033 287.9481 15.41386160 41711 HADES-ICM (SO-125) 1 63492U 25052BN 25346.69669329 .00079330 00000-0 20054-2 0 9993 2 63492 97.4084 240.2075 0011600 75.3697 284.8834 15.39428772 41698 Dragonfly 1 65729U 98067XH 25346.67493080 .00219639 00000-0 16127-2 0 9995 2 65729 51.6248 136.0967 0006787 276.9077 83.1148 15.71879709 13154 RSP-03 1 65732U 98067XL 25346.80283155 .00161855 00000-0 13718-2 0 9993 2 65732 51.6253 136.2083 0005762 249.7501 110.2876 15.68628297 13179 GHS-01 1 65733U 98067XM 25346.69021224 .00264493 00000-0 17047-2 0 9999 2 65733 51.6272 135.4559 0007161 280.4692 79.5500 15.74787819 13172 BOTAN 1 65942U 98067XP 25346.84619684 .00139962 00000-0 14970-2 0 9995 2 65942 51.6286 138.7562 0003106 238.0921 121.9771 15.62906067 9888 BEE-1000 1 66650U 25274A 25346.75243811 .00003284 00000-0 33194-3 0 9994 2 66650 97.7386 273.9398 0010367 251.2975 108.7119 14.91662883 2405 SPIRONE 1 66657U 25274H 25346.74428824 .00005201 00000-0 51210-3 0 9999 2 66657 97.7381 273.9498 0010683 276.0433 83.9569 14.92453734 2400 K-HERO 1 66660U 25274L 25346.87284939 .00004384 00000-0 42693-3 0 9990 2 66660 97.7388 274.0900 0012633 280.2924 79.6871 14.92959825 2422 SNUGLITE-III DURI 1 66661U 25274M 25346.87123461 .00004129 00000-0 40098-3 0 9997 2 66661 97.7384 274.0918 0013356 281.3992 78.5727 14.93098958 2428 SilverSat 1 66909U 98067XV 25346.91909407 .00094974 00000-0 15570-2 0 9992 2 66909 51.6297 141.4878 0004450 228.6613 131.3994 15.51661311 1647 CEVROSAT1 1 98526U 25248E 25313.13142326 .00000000 00000-0 19360-3 0 02 2 98526 45.4084 218.4764 0001315 254.8982 242.1062 15.17981583 02 /EX